Погода в Сольцах

Россия / Новгородская область     58°07′12″N   30°18′33″E
темп.,
°C
ветер,
м/с
пор.,
м/с
влажн.,
%
обл.,
%
осадки,
мм/ч
давл.,
гПа
погр.,
м
15 апреля, чт
чт1500:00+2ссв278888 0.0 1024141
03:00+1ссв31189100 0.0 1024323
06:00+1ссв4138389 0.0 1024387
09:00+4ссв5127164 0.0 1025604
12:00+7св61058100 0.0 1025919
15:00+9св6105295 0.0 10241222
18:00+8св61158100 0.0 10241033
21:00+7св61263100 0.1 1024888
16 апреля, пт
пт1600:00+6св61376100 0.5 1024660
03:00+5св51376100 0.5 1024587
06:00+3св6138199 0.0 1024496
09:00+5всв6137583 0.0 1024569
12:00+9всв61067100 0.0 1025738
15:00+12всв61061100 0.0 10251009
18:00+12всв6106499 0.0 1024968
21:00+9всв51368100 0.0 1026631
17 апреля, сб
сб1700:00+7всв51365100 0.0 1026524
03:00+5всв5126985 0.0 1027424
06:00+4всв51274100 0.0 1027413
09:00+6всв51169100 0.0 1028478
12:00+10всв5859100 0.0 1028815
15:00+13всв5752100 0.0 10281098
18:00+13всв495067 0.0 1027814
21:00+8всв3116098 0.0 1028237
18 апреля, вс
вс1800:00+6всв3106957 0.0 1028217
03:00+4всв38798 0.0 1029168
06:00+3всв38855 0.0 1029172
09:00+8всв47640 0.0 1029390
12:00+12всв57480 0.0 10281171
15:00+13всв56415 0.0 10281615
18:00+13всв46465 0.0 10271335
21:00+7всв37655 0.0 1028122
19 апреля, пн
пн1900:00+6в310715 0.0 1029206
03:00+4в26795 0.0 1029120
06:00+3в25855 0.0 103084
09:00+8в356314 0.0 1030378
12:00+12в45485 0.0 10291348
15:00+14в454277 0.0 10292002
18:00+14всв344835 0.0 10271279
21:00+9в357012 0.0 102796